Regional Weather Roundup
Issued by NWS Sterling, VA

Home | Current Version | Previous Version | Text Only | Print | Product List | Glossary Off
Versions: 1 2 3 4 5 6 7 8 9 10 11 12 13 14 15 16 17 18 19 20 21 22 23 24 25 26 27 28 29 30 31 32 33 34 35 36 37 38 39 40 41 42 43 44 45 46 47 48 49 50

000
ASUS41 KLWX 021810
RWRLWX

REGIONAL WEATHER ROUNDUP
NATIONAL WEATHER SERVICE BALTIMORE MD/WASHINGTON DC
100 PM EST MON MAR 02 2015

Note: "FAIR" indicates few or no clouds below 12,000 feet
with no significant weather and/or obstructions to visibility.
 TC=TEMPERATURE CELSIUS

 * =Non NWS site. Station does not report precipitation (e.g. rain,
    snow, etc.), thunder, or fog.

DCZ001-MDZ009-015-VAZ040>042-051-053>054-021900-
WASHINGTON METRO

CITY           SKY/WX    TMP DP  RH WIND       PRES   REMARKS
WASHINGTON NAT MOSUNNY   45  21  38 N12G23    30.30R
DULLES         MOSUNNY   40  17  39 NW17G26   30.28S
ANDREWS AFB    MOSUNNY   41  20  43 NW20G26   30.27S
FT BELVOIR     MOSUNNY   44  18  35 NW15G21   30.29R
QUANTICO       PTSUNNY   47  19  33 N22G36    30.28F
COLLEGE PARK*  MOSUNNY   41  18  38 W14G23    30.30R
LEESBURG*      SUNNY     41  21  45 NW18G28   30.29S
MANASSAS*      SUNNY     41  19  42 N21G33    30.28S
GAITHERSBURG*  FAIR      37  16  41 NW15G25   30.31R WCI  28

$$

MDZ006>007-011-014-021900-
BALTIMORE METRO

CITY           SKY/WX    TMP DP  RH WIND       PRES   REMARKS
BWI AIRPORT    MOSUNNY   39  16  39 W17G28    30.27S
MD SCIENCE CTR   N/A    N/A N/A N/A MISG      30.27F
MARTIN STATE   MOSUNNY   39  19  45 NW20G25   30.28S
ANNAPOLIS      SUNNY     41  14  33 NW16G31   30.27R
FORT MEADE*    SUNNY     41  18  38 NW13G28   30.30F

$$

MDZ012-015-019>023-021900-
MARYLAND EASTERN SHORE

CITY           SKY/WX    TMP DP  RH WIND       PRES   REMARKS
OCEAN CITY     PTSUNNY   42  30  62 NW13G20   30.24S
SALISBURY      PTSUNNY   44  24  45 NW21G30   30.25S
BAY BRIDGE AP*   N/A     41  23  48 NW10      30.28S
CAMBRIDGE*     MOSUNNY   43  25  49 NW18G25   30.27S
EASTON*        MOSUNNY   45  25  45 MISG      30.29S

$$

MDZ017>025-021900-
SOUTHERN MARYLAND

CITY           SKY/WX    TMP DP  RH WIND       PRES   REMARKS
PATUXENT RIVER PTSUNNY   43  28  55 N17       30.27S
ST INIGOES     PTSUNNY   45  27  49 VRB6      30.27S
LEONARDTOWN*   PTSUNNY   43  27  52 NW8G21    30.28F

$$

MDZ003>005-021900-
NORTH CENTRAL MARYLAND

CITY           SKY/WX    TMP DP  RH WIND       PRES   REMARKS
FREDERICK*     SUNNY     39  10  30 NW18G25   30.31S
HAGERSTOWN APT SUNNY     36  16  44 W18       30.29F WCI  26
WESTMINSTER*   FAIR      36  19  51 NW14G21   30.25F WCI  27

$$

MDZ501>502-021900-
WESTERN MARYLAND

CITY           SKY/WX    TMP DP  RH WIND       PRES   REMARKS
OAKLAND*       MOSUNNY   23  23 100 W15G21    30.24S WCI  10
CUMBERLAND*    SUNNY     36  16  44 W15G28    30.38F WCI  26

$$

VAZ025>031-021900-
SHENANDOAH VALLEY

CITY           SKY/WX    TMP DP  RH WIND       PRES   REMARKS
WINCHESTER*    SUNNY     43  12  28 NW16G33   30.27F
FRONT ROYAL*   FAIR      41  14  33 N13G28    30.27S
LURAY*         FAIR      46  19  34 NW13G20   30.27R
NEW MARKET*    FAIR      42  16  35 N12       30.26F
STAUNTON*      SUNNY     44  17  33 N6        30.26F
WAYNESBORO*    FAIR      45  21  37 N7        30.22F

$$

WVZ021-048>050-054>055-021900-
EASTERN WEST VIRGINIA PANHANDLE

CITY           SKY/WX    TMP DP  RH WIND       PRES   REMARKS
MARTINSBURG    SUNNY     41  15  35 NW13G21   30.30S
PETERSBURG*    NOT AVBL

$$

VAZ036>039-050-021900-
CENTRAL FOOTHILLS

CITY           SKY/WX    TMP DP  RH WIND       PRES   REMARKS
CHARLOTTESVILL SUNNY     49  19  30 N8        30.24S
CULPEPER*      MOSUNNY   48  19  32 N12       30.28S
ORANGE*        SUNNY     48  21  34 N7        30.27S
GORDONSVILLE*  FAIR      49  17  28 W8        30.24F
WARRENTON*     FAIR      48  27  45 NW16G26   30.27F

$$

VAZ055>057-021900-
NORTH AND CENTRAL PIEDMONT

CITY           SKY/WX    TMP DP  RH WIND       PRES   REMARKS
FREDERICKSBRG* SUNNY     50  25  37 N14G20    30.27R
STAFFORD*      MOSUNNY   46  22  38 NW17G26   30.31S

$$

NCZ024-NYZ072-PAZ021-071-VAZ022-071-021900-
OTHER REGIONAL OBSERVATIONS

CITY           SKY/WX    TMP DP  RH WIND       PRES   REMARKS
NEW YORK CITY  SUNNY     36  12  37 NW13G25   30.16F WCI  27
PHILADELPHIA   MOSUNNY   38  19  46 NW15G22   30.23S
PITTSBURGH     PTSUNNY   27  16  63 W13       30.41F WCI  16
ROANOKE        MOSUNNY   47  20  34 N12G20    30.28F
RICHMOND       PTSUNNY   50  35  56 N12       30.26S
RALEIGH        PTSUNNY   58  39  49 VRB7      30.24F

$$

ANZ530>537-021900-
MARINE OBSERVATIONS

STATION/POSITION TIME  TEMP    WIND        PRES
                       AIR SEA DIR/SP/G
                 (UTC) (F)     (DEG/KT/KT) (MB)
THOMAS PT LIGHT  1800   39 32  320/ 12/ 15 1026.0R
BALT KEY BRIDGE  1700   38     290/ 20/ 23 1024.7R
COVE POINT       1700   38     360/ 12/ 16 1024.8R
LEWISETTA        1700   41 32  350/ 11/ 16 1024.8R
SOLOMONS ISLAND  1700      33                N/A

$$




USA.gov is the U.S. government's official web portal to all federal, state and local government web resources and services.